map of OUL home
OUL - Airport
Location
City:  Oulu, Pohjois-Pohjanmaa (Norra Österbotten, Northern Ostrobothnia), Finland
ICAO:EFOU
IATA:OUL

Details
Type:Airport (Aerodrome, Airfield)
Latitude:64°55'45"N (64.929167)
Longitude:25°21'20"E (25.355556)
Elevation:47 ft (14 m)
Variation:11.01°E (WMM2015v2 magnetic declination)
0.22° annual change
Runways:1
Longest:8205 × 197 ft (2501 × 60 m), paved

Time
Time Zone:UTC+2 (DST+3)
Local Time:

Weather
METAR:EFOU 041420Z AUTO 11009KT 2200 -SN FEW015/// OVC020/// M10/M12 Q1010
TAF:EFOU 041129Z 0412/0512 10010KT 4000 -SN FEW010 BKN020
TEMPO 0412/0416 1500 SN VV008
BECMG 0416/0418 8000 NSW
TEMPO 0418/0508 4000 -SN BKN006

Related Locations
Nearby:
Farthest:NZTB: 11272 mi / 18141 km
Terra Nova Bay [Mario Zucchelli Station], AQ

Find:

   beyond  
but within

Other Information
Maps:
NOTAMs:
Links:
Sources:

  
  • flag of Finland
  

Sectional Chart

Flight Planning
at skyvector.com

Satellite Image

Google Maps Satellite view

 

Copyright © 2004-2019 Karl L. Swartz. All rights reserved.
The Great Circle Mapper name and logo are trademarks of the Great Circle Mapper.
All other trademarks mentioned herein belong to their respective owners.
Please see credits for attibutions and further copyright information.

  Follow gcmap on Facebook Follow gcmap on Twitter GCmap on LinkedIn

hCard Microformat

Geo Microformat